Location: Apollinopolis Magna
(24.9792°N, 32.8772°E)
Time: 18:25:08
(UTC+00:00)

GP-B - Pass Details

Date: 02 March 2021
Orbit: 631 x 634 km, 89.8° (Epoch: 09 April)

Event Time Altitude Azimuth Distance (km) Brightness Sun altitude
Rises 17:16:39 0° 180° (S) 2,913 6.5 -20.1°
Reaches altitude 10° 17:18:51 10° 182° (S) 2,008 5.7 -20.6°
Maximum altitude 17:23:16 74° 267° (W) 661 3.2 -21.6°
Drops below altitude 10° 17:27:42 10° 353° (N) 2,019 5.8 -22.6°
Sets 17:29:56 0° 355° (N) 2,929 6.6 -23.1°
